Location: Erp
(42.9417°N, 1.2009°E)
Time: 15:30:04
(UTC+00:00)

Meteor 1-21 - Pass Details

Date: 12 January 2026
Orbit: 845 x 885 km, 81.2° (Epoch: 18 February)

Event Time Altitude Azimuth Distance (km) Brightness Sun altitude
Rises 17:50:42 0° 175° (S) 3,408 7.5 -12.2°
Reaches altitude 10° 17:53:09 10° 171° (S) 2,471 6.7 -12.7°
Maximum altitude 17:58:35 55° 95° (E) 1,015 4.3 -13.6°
Drops below altitude 10° 18:04:03 10° 19° (NNE) 2,476 6.3 -14.6°
Sets 18:06:30 0° 15° (NNE) 3,415 7.1 -15.0°
